CDT,Max TemperatureF,Mean TemperatureF,Min TemperatureF,Max Dew PointF,MeanDew PointF,Min DewpointF,Max Humidity, Mean Humidity, Min Humidity, Max Sea Level PressureIn, Mean Sea Level PressureIn, Min Sea Level PressureIn, Max VisibilityMiles, Mean VisibilityMiles, Min VisibilityMiles, Max Wind SpeedMPH, Mean Wind SpeedMPH, Max Gust SpeedMPH,PrecipitationIn, CloudCover, Events, WindDirDegrees
2013-7-1,82,71,60,61,55,50,90,64,37,30.04,30.01,29.97,10,10,10,22,12,28,0.00,2,,5
2013-7-2,81,69,57,57,53,49,80,58,35,30.07,30.04,30.01,10,10,10,23,10,29,0.00,0,,21
2013-7-3,84,70,56,60,56,53,93,66,39,30.08,30.04,30.00,10,10,10,17,6,21,T,1,Rain-Thunderstorm,222
2013-7-4,85,72,58,60,57,54,84,62,40,30.07,30.04,29.99,10,10,10,18,6,23,0.00,1,,160
2013-7-5,85,74,63,65,61,57,87,65,43,30.06,30.01,29.96,10,10,10,23,8,30,T,0,,154
2013-7-6,88,76,63,68,63,57,93,68,43,30.02,29.98,29.93,10,10,6,17,8,22,0.00,0,,158
2013-7-7,90,79,67,70,66,63,87,67,47,30.02,29.99,29.96,10,10,9,18,9,23,0.00,0,,186
2013-7-8,90,83,75,72,69,65,79,66,52,30.09,30.03,30.01,10,10,1,16,10,24,0.00,1,,199
2013-7-9,94,85,75,72,71,69,82,64,46,30.04,29.98,29.89,10,10,10,23,10,28,0.00,0,,196
2013-7-10,89,80,71,76,70,64,85,66,46,30.01,29.95,29.89,10,9,0,20,10,29,0.67,4,Fog-Rain-Thunderstorm,281
2013-7-11,85,75,65,63,61,59,87,67,46,30.07,30.04,30.01,10,10,10,14,8,20,0.00,0,,60
2013-7-12,83,72,61,63,59,56,90,65,40,30.12,30.07,30.03,10,10,7,15,7,20,0.00,0,,111
2013-7-13,81,72,62,66,61,57,90,72,54,30.10,30.06,30.01,10,10,10,10,5,13,0.00,0,,113
2013-7-14,86,75,64,68,63,60,87,68,48,30.12,30.08,30.04,10,10,9,15,8,19,0.00,0,,103
2013-7-15,89,79,69,74,70,67,94,76,57,30.23,30.17,30.12,10,9,1,16,7,21,0.32,3,Rain-Thunderstorm,128
2013-7-16,90,81,71,74,72,70,100,76,52,30.30,30.25,30.20,10,9,5,13,6,15,0.00,2,,135
2013-7-17,93,83,73,74,71,69,93,71,49,30.33,30.26,30.19,10,10,10,10,4,13,0.00,0,,158
2013-7-18,93,83,72,73,70,67,87,66,44,30.22,30.11,30.01,10,10,10,10,5,14,0.00,1,,169
2013-7-19,96,84,71,71,68,66,90,64,38,30.01,29.94,29.86,10,10,10,15,8,19,0.00,0,,218
2013-7-20,87,80,72,73,69,66,84,73,62,29.94,29.89,29.85,10,10,6,21,8,25,0.05,3,Rain,241
2013-7-21,83,76,68,71,69,66,100,83,65,29.94,29.89,29.85,10,7,1,20,6,21,1.04,5,Rain,139
2013-7-22,91,78,65,73,69,65,100,78,56,29.88,29.84,29.76,10,4,0,14,6,17,0.00,2,Fog,184
2013-7-23,87,78,68,74,69,63,84,70,55,29.92,29.85,29.79,10,10,10,23,8,31,0.00,1,Thunderstorm,354
2013-7-24,81,73,64,63,60,58,87,68,48,30.04,29.99,29.94,10,10,10,14,7,16,0.00,1,,53
2013-7-25,82,71,59,65,60,57,90,71,51,30.13,30.07,30.03,10,10,10,10,5,13,0.00,1,,121
2013-7-26,76,71,65,70,66,59,97,84,70,30.06,30.01,29.97,10,9,4,16,7,21,0.21,6,Rain,193
2013-7-27,76,66,56,59,53,48,93,66,38,30.06,30.01,29.98,10,10,10,17,9,23,0.00,1,,334
2013-7-28,80,66,52,55,51,46,89,61,33,30.06,30.03,30.01,10,10,10,13,6,16,0.00,0,,227
2013-7-29,74,67,59,66,62,55,93,81,68,30.15,30.10,30.06,10,10,9,14,7,16,0.06,6,Rain,124
2013-7-30,85,76,67,74,68,63,94,82,69,30.05,30.01,29.97,10,10,4,10,5,14,0.10,7,Rain,118
2013-7-31,79,72,65,72,68,63,100,85,69,30.10,30.05,30.01,10,8,2,16,7,20,T,7,,355